Regional Weather Roundup
Issued by NWS

Home | Current Version | Previous Version | Text Only | Print | Product List | Glossary Off
Versions: 1 2 3 4 5 6 7 8 9 10 11 12 13 14 15 16 17 18 19 20 21 22 23 24 25 26 27 28 29 30 31 32 33 34 35 36 37 38 39 40 41 42 43 44 45 46 47 48 49 50

000
ASUS43 KLMK 290410
RWRKY
KENTUCKY REGIONAL WEATHER ROUNDUP
NATIONAL WEATHER SERVICE LOUISVILLE KY
1200 AM EDT THU SEP 29 2016

NOTE "FAIR" INDICATES FEW OR NO CLOUDS BELOW 12,000 FEET
WITH NO SIGNIFICANT WEATHER AND/OR OBSTRUCTIONS TO VISIBILITY.

KYZ001>023-026-027-061>063-070>075-290500-
WESTERN AND SOUTH CENTRAL KENTUCKY

CITY           SKY/WX    TMP DP  RH WIND       PRES   REMARKS
PADUCAH        CLEAR     56  46  69 N7        30.08S
HENDERSON      CLEAR     54  45  71 NW5       30.04F
OWENSBORO      NOT AVBL
HOPKINSVILLE   CLEAR     54  45  69 VRB2      30.06R
BOWLING GREEN  CLEAR     56  48  74 W5        30.04R
GLASGOW        MOCLDY    55  54  97 NW5       30.02S
$$

KYZ024-025-028>034-038-045-046-053-290500-
NORTH CENTRAL KENTUCKY

CITY           SKY/WX    TMP DP  RH WIND       PRES   REMARKS
LOUISVILLE/SDF PTCLDY    56  49  77 W5        30.00R
LOUISVILLE/LOU CLEAR     56  49  77 W7        30.00S
FORT KNOX      CLEAR     51  48  91 W6        30.00R
$$

KYZ035>037-039>044-047>052-055>060-089>105-290500-
NORTHEAST KENTUCKY

CITY           SKY/WX    TMP DP  RH WIND       PRES   REMARKS
LEXINGTON      PTCLDY    54  50  86 NW8       29.98F
COVINGTON      FOG       50  50 100 W6        29.96F VSB 1/4
FRANKFORT      MOCLDY    54  51  90 W5        29.98S
$$

KYZ054-064>069-076>088-106>120-290500-
SOUTHEAST KENTUCKY

CITY           SKY/WX    TMP DP  RH WIND       PRES   REMARKS
JACKSON        LGT RAIN  57  56  96 CALM      29.99F
LONDON         LGT RAIN  56  52  86 CALM      29.98F
SOMERSET       CLOUDY    52  52 100 CALM      30.02S
MIDDLESBORO    CLOUDY    62  55  79 NE6       29.99F
MONTICELLO     CLOUDY    54  54 100 W12       30.03R
$$





USA.gov is the U.S. government's official web portal to all federal, state and local government web resources and services.